20040727,000000,1218256,34.629667,-121.745167,NaN,16.427,33.444,42.562,  NaN,0.0, NaN, NaN, NaN, NaN,24.454,346.790,16.30,1013.95,91.60,NaN,310.0,NaN,6.6,NaN,323.7,NaN,4.8,NaN,NaN, NaN,NaN,65.0,NaN,NaN,NaN,2,9.9,086397,   NaN,64.2,     NaN,      NaN,NaN,10.6,NaN,16.431, NaN,NaN,NaN, NaN, NaN
20040727,000030,1218286,34.630167,-121.743667,NaN,16.430,33.443,42.564,  NaN,0.0, NaN, NaN, NaN, NaN,24.452,346.918,16.40,1014.00,91.50,NaN,315.0,NaN,6.7,NaN,330.4,NaN,4.9,NaN,NaN, NaN,NaN,63.0,NaN,NaN,NaN,2,9.8,000027,   NaN,60.7,     NaN,      NaN,NaN,10.1,NaN,16.434, NaN,NaN,NaN, NaN, NaN
20040727,000100,1218316,34.630833,-121.742167,NaN,16.433,33.444,42.568,  NaN,0.0, NaN, NaN, NaN, NaN,24.452,346.977,16.30,1013.86,91.60,NaN,317.0,NaN,7.5,NaN,324.4,NaN,5.1,NaN,NaN, NaN,NaN,61.0,NaN,NaN,NaN,2,9.9,000057,   NaN,58.4,     NaN,      NaN,NaN,9.9,NaN,16.437, NaN,NaN,NaN, NaN, NaN
20040727,000130,1218346,34.631667,-121.740667,NaN,16.436,33.442,42.568,  NaN,0.0, NaN, NaN, NaN, NaN,24.450,347.107,16.30,1013.90,91.60,NaN,313.0,NaN,6.3,NaN,321.9,NaN,4.2,NaN,NaN, NaN,NaN,64.0,NaN,NaN,NaN,2,9.9,000087,   NaN,59.5,     NaN,      NaN,NaN,10.4,NaN,16.439, NaN,NaN,NaN, NaN, NaN
20040727,000200,1218376,34.632167,-121.739333,NaN,16.437,33.442,42.570,  NaN,0.0, NaN, NaN, NaN, NaN,24.450,347.145,16.30,1013.77,91.60,NaN,319.0,NaN,6.8,NaN,326.8,NaN,4.8,NaN,NaN, NaN,NaN,63.0,NaN,NaN,NaN,2,9.7,000117,   NaN,61.3,     NaN,      NaN,NaN,10.5,NaN,16.441, NaN,NaN,NaN, NaN, NaN
20040727,000230,1218406,34.632833,-121.737833,NaN,16.442,33.442,42.575,  NaN,0.0, NaN, NaN, NaN, NaN,24.449,347.270,16.30,1013.90,91.70,NaN,316.0,NaN,7.2,NaN,337.6,NaN,4.8,NaN,NaN, NaN,NaN,64.0,NaN,NaN,NaN,2,9.8,000147,   NaN,60.4,     NaN,      NaN,NaN,10.2,NaN,16.446, NaN,NaN,NaN, NaN, NaN
20040727,000300,1218436,34.633500,-121.736333,NaN,16.446,33.443,42.579,  NaN,0.0, NaN, NaN, NaN, NaN,24.448,347.326,16.30,1013.86,91.60,NaN,315.0,NaN,7.0,NaN,324.1,NaN,5.2,NaN,NaN, NaN,NaN,62.0,NaN,NaN,NaN,2,9.7,000177,   NaN,59.2,     NaN,      NaN,NaN,10.0,NaN,16.450, NaN,NaN,NaN, NaN, NaN
20040727,000330,1218466,34.634167,-121.734833,NaN,16.440,33.443,42.573,  NaN,0.0, NaN, NaN, NaN, NaN,24.450,347.161,16.30,1013.82,91.80,NaN,305.0,NaN,6.9,NaN,326.3,NaN,4.6,NaN,NaN, NaN,NaN,66.0,NaN,NaN,NaN,2,9.9,000207,   NaN,60.0,     NaN,      NaN,NaN,11.0,NaN,16.444, NaN,NaN,NaN, NaN, NaN
20040727,000400,1218496,34.634833,-121.733500,NaN,16.445,33.442,42.577,  NaN,0.0, NaN, NaN, NaN, NaN,24.448,347.351,16.20,1013.80,91.60,NaN,308.0,NaN,8.1,NaN,324.6,NaN,5.9,NaN,NaN, NaN,NaN,65.0,NaN,NaN,NaN,2,9.8,000237,   NaN,62.8,     NaN,      NaN,NaN,9.9,NaN,16.449, NaN,NaN,NaN, NaN, NaN
20040727,000430,1218526,34.635500,-121.732000,NaN,16.459,33.442,42.590,  NaN,0.0, NaN, NaN, NaN, NaN,24.445,347.678,16.20,1013.72,91.50,NaN,319.0,NaN,6.6,NaN,331.8,NaN,4.7,NaN,NaN, NaN,NaN,60.0,NaN,NaN,NaN,2,9.8,000267,   NaN,59.4,     NaN,      NaN,NaN,10.1,NaN,16.463, NaN,NaN,NaN, NaN, NaN
20040727,000500,1218556,34.636000,-121.730500,NaN,16.463,33.442,42.595,  NaN,0.0, NaN, NaN, NaN, NaN,24.444,347.713,16.20,1013.92,91.80,NaN,314.0,NaN,7.3,NaN,329.5,NaN,5.1,NaN,NaN, NaN,NaN,63.0,NaN,NaN,NaN,2,9.7,000297,   NaN,60.8,     NaN,      NaN,NaN,10.6,NaN,16.467, NaN,NaN,NaN, NaN, NaN
20040727,000530,1218586,34.636667,-121.729167,NaN,16.463,33.443,42.595,  NaN,0.0, NaN, NaN, NaN, NaN,24.444,347.712,16.20,1013.85,92.10,NaN,318.0,NaN,7.5,NaN,334.1,NaN,5.4,NaN,NaN, NaN,NaN,61.0,NaN,NaN,NaN,2,9.8,000327,   NaN,60.8,     NaN,      NaN,NaN,10.8,NaN,16.467, NaN,NaN,NaN, NaN, NaN
20040727,000600,1218616,34.637333,-121.727667,NaN,16.459,33.444,42.593,  NaN,0.0, NaN, NaN, NaN, NaN,24.446,347.542,16.20,1013.94,91.80,NaN,308.0,NaN,8.3,NaN,326.9,NaN,5.8,NaN,NaN, NaN,NaN,62.0,NaN,NaN,NaN,2,9.8,000357,   NaN,58.3,     NaN,      NaN,NaN,10.2,NaN,16.463, NaN,NaN,NaN, NaN, NaN
20040727,000630,1218646,34.638000,-121.726167,NaN,16.457,33.443,42.591,  NaN,0.0, NaN, NaN, NaN, NaN,24.446,347.523,16.20,1013.94,92.00,NaN,316.0,NaN,6.2,NaN,327.6,NaN,4.7,NaN,NaN, NaN,NaN,61.0,NaN,NaN,NaN,2,9.8,000387,   NaN,58.2,     NaN,      NaN,NaN,10.6,NaN,16.461, NaN,NaN,NaN, NaN, NaN
20040727,000700,1218676,34.638667,-121.724833,NaN,16.459,33.443,42.592,  NaN,0.0, NaN, NaN, NaN, NaN,24.446,347.543,16.20,1013.87,92.00,NaN,314.0,NaN,6.3,NaN,319.9,NaN,4.3,NaN,NaN, NaN,NaN,63.0,NaN,NaN,NaN,2,9.8,000417,   NaN,61.1,     NaN,      NaN,NaN,10.6,NaN,16.463, NaN,NaN,NaN, NaN, NaN
20040727,000730,1218706,34.639333,-121.723333,NaN,16.458,33.444,42.592,  NaN,0.0, NaN, NaN, NaN, NaN,24.446,347.499,16.20,1013.80,91.70,NaN,304.0,NaN,7.4,NaN,314.5,NaN,5.8,NaN,NaN, NaN,NaN,63.0,NaN,NaN,NaN,2,9.8,000447,   NaN,59.3,     NaN,      NaN,NaN,10.2,NaN,16.462, NaN,NaN,NaN, NaN, NaN
20040727,000800,1218736,34.639833,-121.721833,NaN,16.453,33.445,42.588,  NaN,0.0, NaN, NaN, NaN, NaN,24.448,347.290,16.20,1013.92,92.00,NaN,303.0,NaN,7.7,NaN,315.5,NaN,5.7,NaN,NaN, NaN,NaN,64.0,NaN,NaN,NaN,2,9.9,000477,   NaN,61.8,     NaN,      NaN,NaN,10.3,NaN,16.456, NaN,NaN,NaN, NaN, NaN
20040727,000830,1218766,34.640500,-121.720333,NaN,16.450,33.443,42.583,  NaN,0.0, NaN, NaN, NaN, NaN,24.447,347.407,16.20,1013.84,91.70,NaN,320.0,NaN,7.4,NaN,332.8,NaN,4.9,NaN,NaN, NaN,NaN,61.0,NaN,NaN,NaN,2,9.8,000507,   NaN,60.4,     NaN,      NaN,NaN,10.4,NaN,16.454, NaN,NaN,NaN, NaN, NaN
20040727,000900,1218796,34.641167,-121.719000,NaN,16.444,33.445,42.579,  NaN,0.0, NaN, NaN, NaN, NaN,24.451,347.086,16.00,1013.95,91.80,NaN,303.0,NaN,6.6,NaN,310.6,NaN,5.1,NaN,NaN, NaN,NaN,66.0,NaN,NaN,NaN,2,9.9,000537,   NaN,60.6,     NaN,      NaN,NaN,10.7,NaN,16.448, NaN,NaN,NaN, NaN, NaN
20040727,000930,1218826,34.641833,-121.717500,NaN,16.434,33.445,42.570,  NaN,0.0, NaN, NaN, NaN, NaN,24.452,346.931,16.20,1013.85,92.10,NaN,320.0,NaN,6.7,NaN,330.4,NaN,4.2,NaN,NaN, NaN,NaN,62.0,NaN,NaN,NaN,2,10.0,000567,   NaN,62.5,     NaN,      NaN,NaN,10.3,NaN,16.438, NaN,NaN,NaN, NaN, NaN
20040727,001000,1218856,34.642333,-121.716000,NaN,16.431,33.445,42.567,  NaN,0.0, NaN, NaN, NaN, NaN,24.453,346.825,16.20,1013.93,92.20,NaN,318.0,NaN,5.6,NaN,316.6,NaN,3.6,NaN,NaN, NaN,NaN,67.0,NaN,NaN,NaN,2,10.0,000597,   NaN,60.6,     NaN,      NaN,NaN,10.2,NaN,16.435, NaN,NaN,NaN, NaN, NaN
20040727,001030,1218886,34.643000,-121.714500,NaN,16.432,33.445,42.568,  NaN,0.0, NaN, NaN, NaN, NaN,24.453,346.867,16.20,1013.81,92.20,NaN,317.0,NaN,6.6,NaN,323.1,NaN,4.7,NaN,NaN, NaN,NaN,62.0,NaN,NaN,NaN,2,9.9,000627,   NaN,58.4,     NaN,      NaN,NaN,10.5,NaN,16.436, NaN,NaN,NaN, NaN, NaN
20040727,001100,1218916,34.643667,-121.713000,NaN,16.441,33.445,42.576,  NaN,0.0, NaN, NaN, NaN, NaN,24.451,347.048,16.20,1013.90,92.10,NaN,309.0,NaN,5.8,NaN,313.4,NaN,4.5,NaN,NaN, NaN,NaN,65.0,NaN,NaN,NaN,2,9.9,000657,   NaN,60.6,     NaN,      NaN,NaN,10.9,NaN,16.445, NaN,NaN,NaN, NaN, NaN
20040727,001130,1218946,34.644333,-121.711500,NaN,16.448,33.446,42.585,  NaN,0.0, NaN, NaN, NaN, NaN,24.450,347.164,16.20,1013.88,92.20,NaN,306.0,NaN,6.3,NaN,316.0,NaN,4.8,NaN,NaN, NaN,NaN,68.0,NaN,NaN,NaN,2,9.9,000687,   NaN,62.4,     NaN,      NaN,NaN,10.2,NaN,16.453, NaN,NaN,NaN, NaN, NaN
20040727,001200,1218976,34.644833,-121.710000,NaN,16.450,33.446,42.587,  NaN,0.0, NaN, NaN, NaN, NaN,24.450,347.183,16.20,1013.69,92.20,NaN,304.0,NaN,6.5,NaN,319.8,NaN,5.2,NaN,NaN, NaN,NaN,64.0,NaN,NaN,NaN,2,9.7,000717,   NaN,59.2,     NaN,      NaN,NaN,10.6,NaN,16.454, NaN,NaN,NaN, NaN, NaN
20040727,001230,1219006,34.645500,-121.708667,NaN,16.460,33.446,42.596,  NaN,0.0, NaN, NaN, NaN, NaN,24.448,347.362,16.20,1013.75,92.20,NaN,306.0,NaN,7.3,NaN,327.4,NaN,5.1,NaN,NaN, NaN,NaN,61.0,NaN,NaN,NaN,2,9.8,000747,   NaN,59.6,     NaN,      NaN,NaN,10.4,NaN,16.464, NaN,NaN,NaN, NaN, NaN
20040727,001300,1219036,34.646167,-121.707167,NaN,16.463,33.447,42.600,  NaN,0.0, NaN, NaN, NaN, NaN,24.447,347.420,16.20,1013.90,92.10,NaN,296.0,NaN,7.0,NaN,310.1,NaN,6.4,NaN,NaN, NaN,NaN,64.0,NaN,NaN,NaN,2,9.7,000777,   NaN,60.4,     NaN,      NaN,NaN,10.9,NaN,16.468, NaN,NaN,NaN, NaN, NaN
20040727,001330,1219066,34.646667,-121.705667,NaN,16.456,33.448,42.594,  NaN,0.0, NaN, NaN, NaN, NaN,24.450,347.190,16.20,1013.92,92.20,NaN,307.0,NaN,5.8,NaN,312.9,NaN,5.0,NaN,NaN, NaN,NaN,64.0,NaN,NaN,NaN,2,9.7,000807,   NaN,60.4,     NaN,      NaN,NaN,10.7,NaN,16.460, NaN,NaN,NaN, NaN, NaN
20040727,001400,1219096,34.647333,-121.704167,NaN,16.463,33.447,42.599,  NaN,0.0, NaN, NaN, NaN, NaN,24.448,347.378,16.20,1013.77,92.20,NaN,308.0,NaN,7.7,NaN,319.2,NaN,6.8,NaN,NaN, NaN,NaN,62.0,NaN,NaN,NaN,2,9.8,000837,   NaN,61.3,     NaN,      NaN,NaN,10.3,NaN,16.466, NaN,NaN,NaN, NaN, NaN
20040727,001430,1219126,34.648000,-121.702833,NaN,16.480,33.448,42.616,  NaN,0.0, NaN, NaN, NaN, NaN,24.444,347.695,16.20,1013.88,92.00,NaN,309.0,NaN,7.6,NaN,322.9,NaN,6.1,NaN,NaN, NaN,NaN,60.0,NaN,NaN,NaN,2,9.6,000867,   NaN,59.0,     NaN,      NaN,NaN,10.9,NaN,16.483, NaN,NaN,NaN, NaN, NaN
20040727,001500,1219156,34.648667,-121.701333,NaN,16.493,33.449,42.630,  NaN,0.0, NaN, NaN, NaN, NaN,24.442,347.908,16.20,1013.88,92.20,NaN,304.0,NaN,7.2,NaN,322.3,NaN,6.3,NaN,NaN, NaN,NaN,61.0,NaN,NaN,NaN,2,9.7,000897,   NaN,59.0,     NaN,      NaN,NaN,10.2,NaN,16.496, NaN,NaN,NaN, NaN, NaN
20040727,001530,1219186,34.649167,-121.699833,NaN,16.507,33.448,42.643,  NaN,0.0, NaN, NaN, NaN, NaN,24.439,348.236,16.20,1013.81,92.50,NaN,313.0,NaN,6.8,NaN,320.3,NaN,4.8,NaN,NaN, NaN,NaN,63.0,NaN,NaN,NaN,2,9.7,000927,   NaN,59.0,     NaN,      NaN,NaN,10.5,NaN,16.511, NaN,NaN,NaN, NaN, NaN
20040727,001600,1219216,34.649833,-121.698500,NaN,16.511,33.449,42.649,  NaN,0.0, NaN, NaN, NaN, NaN,24.438,348.291,16.30,1013.76,92.40,NaN,311.0,NaN,6.2,NaN,321.1,NaN,4.6,NaN,NaN, NaN,NaN,63.0,NaN,NaN,NaN,2,9.7,000957,   NaN,60.3,     NaN,      NaN,NaN,10.3,NaN,16.515, NaN,NaN,NaN, NaN, NaN
20040727,001630,1219246,34.650500,-121.697000,NaN,16.525,33.450,42.662,  NaN,0.0, NaN, NaN, NaN, NaN,24.436,348.529,16.30,1013.92,92.20,NaN,311.0,NaN,6.7,NaN,327.3,NaN,4.5,NaN,NaN, NaN,NaN,65.0,NaN,NaN,NaN,2,9.8,000987,   NaN,59.5,     NaN,      NaN,NaN,10.2,NaN,16.529, NaN,NaN,NaN, NaN, NaN
20040727,001700,1219276,34.651000,-121.695500,NaN,16.533,33.451,42.671,  NaN,0.0, NaN, NaN, NaN, NaN,24.434,348.644,16.20,1013.80,92.20,NaN,310.0,NaN,5.7,NaN,317.4,NaN,4.7,NaN,NaN, NaN,NaN,66.0,NaN,NaN,NaN,2,9.6,001017,   NaN,61.6,     NaN,      NaN,NaN,10.9,NaN,16.537, NaN,NaN,NaN, NaN, NaN
20040727,001730,1219306,34.651667,-121.694167,NaN,16.535,33.452,42.674,  NaN,0.0, NaN, NaN, NaN, NaN,24.435,348.617,16.20,1013.85,92.50,NaN,312.0,NaN,6.2,NaN,321.0,NaN,4.3,NaN,NaN, NaN,NaN,68.0,NaN,NaN,NaN,2,9.6,001047,   NaN,60.7,     NaN,      NaN,NaN,10.7,NaN,16.539, NaN,NaN,NaN, NaN, NaN
20040727,001800,1219336,34.652333,-121.692667,NaN,16.532,33.452,42.672,  NaN,0.0, NaN, NaN, NaN, NaN,24.436,348.531,16.20,1013.90,92.60,NaN,314.0,NaN,6.1,NaN,318.1,NaN,4.3,NaN,NaN, NaN,NaN,65.0,NaN,NaN,NaN,2,9.6,001077,   NaN,59.3,     NaN,      NaN,NaN,10.1,NaN,16.536, NaN,NaN,NaN, NaN, NaN
20040727,001830,1219366,34.652833,-121.691167,NaN,16.533,33.452,42.672,  NaN,0.0, NaN, NaN, NaN, NaN,24.435,348.553,16.20,1013.92,92.70,NaN,314.0,NaN,5.5,NaN,318.6,NaN,3.7,NaN,NaN, NaN,NaN,67.0,NaN,NaN,NaN,2,9.8,001107,   NaN,59.8,     NaN,      NaN,NaN,10.7,NaN,16.537, NaN,NaN,NaN, NaN, NaN
20040727,001900,1219396,34.653500,-121.689833,NaN,16.533,33.452,42.673,  NaN,0.0, NaN, NaN, NaN, NaN,24.436,348.528,16.00,1013.82,92.50,NaN,312.0,NaN,6.5,NaN,320.8,NaN,4.9,NaN,NaN, NaN,NaN,63.0,NaN,NaN,NaN,2,9.6,001137,   NaN,59.2,     NaN,      NaN,NaN,10.2,NaN,16.537, NaN,NaN,NaN, NaN, NaN
20040727,001930,1219426,34.654167,-121.688333,NaN,16.533,33.453,42.675,  NaN,0.0, NaN, NaN, NaN, NaN,24.436,348.463,16.00,1013.95,92.50,NaN,311.0,NaN,5.2,NaN,311.8,NaN,4.4,NaN,NaN, NaN,NaN,64.0,NaN,NaN,NaN,2,9.7,001167,   NaN,60.2,     NaN,      NaN,NaN,10.6,NaN,16.537, NaN,NaN,NaN, NaN, NaN
20040727,002000,1219456,34.654667,-121.686833,NaN,16.536,33.454,42.678,  NaN,0.0, NaN, NaN, NaN, NaN,24.436,348.501,16.00,1013.87,92.50,NaN,308.0,NaN,6.8,NaN,322.7,NaN,5.3,NaN,NaN, NaN,NaN,66.0,NaN,NaN,NaN,2,9.6,001197,   NaN,63.1,     NaN,      NaN,NaN,10.3,NaN,16.540, NaN,NaN,NaN, NaN, NaN
20040727,002030,1219486,34.655333,-121.685500,NaN,16.537,33.454,42.679,  NaN,0.0, NaN, NaN, NaN, NaN,24.436,348.455,16.00,1013.84,92.50,NaN,313.0,NaN,6.8,NaN,323.9,NaN,5.1,NaN,NaN, NaN,NaN,62.0,NaN,NaN,NaN,2,9.6,001227,   NaN,59.7,     NaN,      NaN,NaN,10.5,NaN,16.541, NaN,NaN,NaN, NaN, NaN
20040727,002100,1219516,34.655833,-121.684000,NaN,16.534,33.455,42.677,  NaN,0.0, NaN, NaN, NaN, NaN,24.437,348.349,16.00,1013.93,92.60,NaN,312.0,NaN,7.2,NaN,322.1,NaN,5.8,NaN,NaN, NaN,NaN,61.0,NaN,NaN,NaN,2,9.6,001257,   NaN,59.9,     NaN,      NaN,NaN,10.2,NaN,16.538, NaN,NaN,NaN, NaN, NaN
20040727,002130,1219546,34.656500,-121.682500,NaN,16.532,33.456,42.676,  NaN,0.0, NaN, NaN, NaN, NaN,24.438,348.285,16.00,1013.85,92.90,NaN,318.0,NaN,5.7,NaN,323.9,NaN,3.9,NaN,NaN, NaN,NaN,61.0,NaN,NaN,NaN,2,9.6,001287,   NaN,58.8,     NaN,      NaN,NaN,10.5,NaN,16.536, NaN,NaN,NaN, NaN, NaN
20040727,002200,1219576,34.657167,-121.681000,NaN,16.530,33.456,42.674,  NaN,0.0, NaN, NaN, NaN, NaN,24.439,348.221,16.00,1013.88,92.90,NaN,304.0,NaN,5.7,NaN,318.9,NaN,4.3,NaN,NaN, NaN,NaN,64.0,NaN,NaN,NaN,2,9.7,001317,   NaN,59.4,     NaN,      NaN,NaN,10.6,NaN,16.534, NaN,NaN,NaN, NaN, NaN
20040727,002230,1219606,34.657833,-121.679667,NaN,16.528,33.456,42.672,  NaN,0.0, NaN, NaN, NaN, NaN,24.439,348.181,16.00,1013.91,92.90,NaN,313.0,NaN,6.1,NaN,324.7,NaN,4.8,NaN,NaN, NaN,NaN,63.0,NaN,NaN,NaN,2,9.8,001347,   NaN,60.7,     NaN,      NaN,NaN,10.4,NaN,16.532, NaN,NaN,NaN, NaN, NaN
20040727,002300,1219636,34.658333,-121.678167,NaN,16.522,33.456,42.667,  NaN,0.0, NaN, NaN, NaN, NaN,24.441,347.997,16.00,1013.92,92.70,NaN,300.0,NaN,6.6,NaN,317.7,NaN,4.8,NaN,NaN, NaN,NaN,63.0,NaN,NaN,NaN,2,9.7,001377,   NaN,59.1,     NaN,      NaN,NaN,10.2,NaN,16.526, NaN,NaN,NaN, NaN, NaN
20040727,002330,1219666,34.659000,-121.676667,NaN,16.536,33.456,42.680,  NaN,0.0, NaN, NaN, NaN, NaN,24.438,348.300,16.00,1013.90,92.90,NaN,306.0,NaN,7.0,NaN,321.5,NaN,5.4,NaN,NaN, NaN,NaN,62.0,NaN,NaN,NaN,2,9.8,001407,   NaN,61.3,     NaN,      NaN,NaN,10.7,NaN,16.540, NaN,NaN,NaN, NaN, NaN
20040727,002400,1219696,34.659667,-121.675333,NaN,16.547,33.457,42.691,  NaN,0.0, NaN, NaN, NaN, NaN,24.436,348.475,16.00,1013.79,92.90,NaN,313.0,NaN,7.4,NaN,326.9,NaN,5.7,NaN,NaN, NaN,NaN,61.0,NaN,NaN,NaN,2,9.8,001437,   NaN,62.4,     NaN,      NaN,NaN,10.0,NaN,16.551, NaN,NaN,NaN, NaN, NaN
20040727,002430,1219726,34.660167,-121.673833,NaN,16.547,33.458,42.693,  NaN,0.0, NaN, NaN, NaN, NaN,24.436,348.431,16.00,1013.94,92.90,NaN,314.0,NaN,6.4,NaN,313.8,NaN,4.7,NaN,NaN, NaN,NaN,64.0,NaN,NaN,NaN,2,9.8,001467,   NaN,59.5,     NaN,      NaN,NaN,10.2,NaN,16.551, NaN,NaN,NaN, NaN, NaN
20040727,002500,1219756,34.660833,-121.672333,NaN,16.547,33.458,42.693,  NaN,0.0, NaN, NaN, NaN, NaN,24.437,348.429,16.00,1013.80,92.70,NaN,309.0,NaN,7.8,NaN,325.4,NaN,5.7,NaN,NaN, NaN,NaN,60.0,NaN,NaN,NaN,2,9.8,001497,   NaN,57.9,     NaN,      NaN,NaN,10.1,NaN,16.551, NaN,NaN,NaN, NaN, NaN
20040727,002530,1219786,34.661500,-121.670833,NaN,16.532,33.461,42.681,  NaN,0.0, NaN, NaN, NaN, NaN,24.442,347.885,16.00,1013.78,93.00,NaN,314.0,NaN,7.4,NaN,330.8,NaN,5.5,NaN,NaN, NaN,NaN,62.0,NaN,NaN,NaN,2,9.7,001527,   NaN,61.3,     NaN,      NaN,NaN,10.6,NaN,16.536, NaN,NaN,NaN, NaN, NaN
20040727,002600,1219816,34.662167,-121.669500,NaN,16.523,33.462,42.674,  NaN,0.0, NaN, NaN, NaN, NaN,24.445,347.613,16.00,1013.82,92.90,NaN,320.0,NaN,7.5,NaN,336.9,NaN,5.7,NaN,NaN, NaN,NaN,60.0,NaN,NaN,NaN,2,9.9,001557,   NaN,60.9,     NaN,      NaN,NaN,10.8,NaN,16.527, NaN,NaN,NaN, NaN, NaN
20040727,002630,1219846,34.662667,-121.668000,NaN,16.507,33.461,42.658,  NaN,0.0, NaN, NaN, NaN, NaN,24.448,347.293,16.00,1013.75,93.10,NaN,322.0,NaN,6.7,NaN,331.7,NaN,4.4,NaN,NaN, NaN,NaN,62.0,NaN,NaN,NaN,2,9.8,001587,   NaN,58.9,     NaN,      NaN,NaN,10.6,NaN,16.511, NaN,NaN,NaN, NaN, NaN
20040727,002700,1219876,34.663333,-121.666500,NaN,16.495,33.463,42.648,  NaN,0.0, NaN, NaN, NaN, NaN,24.452,346.940,16.00,1013.69,93.00,NaN,308.0,NaN,7.2,NaN,320.0,NaN,5.3,NaN,NaN, NaN,NaN,65.0,NaN,NaN,NaN,2,10.0,001617,   NaN,59.2,     NaN,      NaN,NaN,10.1,NaN,16.499, NaN,NaN,NaN, NaN, NaN
20040727,002730,1219906,34.664000,-121.665000,NaN,16.488,33.464,42.643,  NaN,0.0, NaN, NaN, NaN, NaN,24.455,346.685,16.00,1013.68,93.00,NaN,301.0,NaN,6.3,NaN,309.4,NaN,5.5,NaN,NaN, NaN,NaN,64.0,NaN,NaN,NaN,2,10.0,001647,   NaN,58.1,     NaN,      NaN,NaN,10.4,NaN,16.492, NaN,NaN,NaN, NaN, NaN
20040727,002800,1219936,34.664667,-121.663500,NaN,16.492,33.463,42.645,  NaN,0.0, NaN, NaN, NaN, NaN,24.453,346.858,16.00,1013.80,93.00,NaN,316.0,NaN,7.0,NaN,319.6,NaN,5.2,NaN,NaN, NaN,NaN,59.0,NaN,NaN,NaN,2,9.8,001677,   NaN,55.8,     NaN,      NaN,NaN,9.8,NaN,16.495, NaN,NaN,NaN, NaN, NaN
20040727,002830,1219966,34.665333,-121.662167,NaN,16.503,33.462,42.656,  NaN,0.0, NaN, NaN, NaN, NaN,24.450,347.142,15.90,1013.78,92.90,NaN,310.0,NaN,5.4,NaN,309.5,NaN,4.6,NaN,NaN, NaN,NaN,62.0,NaN,NaN,NaN,2,9.9,001707,   NaN,57.0,     NaN,      NaN,NaN,10.5,NaN,16.507, NaN,NaN,NaN, NaN, NaN
20040727,002900,1219996,34.666000,-121.660667,NaN,16.500,33.464,42.655,  NaN,0.0, NaN, NaN, NaN, NaN,24.452,346.970,16.00,1013.78,93.00,NaN,317.0,NaN,6.7,NaN,318.4,NaN,4.9,NaN,NaN, NaN,NaN,60.0,NaN,NaN,NaN,2,9.8,001737,   NaN,56.0,     NaN,      NaN,NaN,10.1,NaN,16.504, NaN,NaN,NaN, NaN, NaN
20040727,002930,1220026,34.666833,-121.659333,NaN,16.496,33.464,42.651,  NaN,0.0, NaN, NaN, NaN, NaN,24.453,346.871,16.00,1013.72,92.90,NaN,302.0,NaN,7.9,NaN,320.6,NaN,6.9,NaN,NaN, NaN,NaN,58.0,NaN,NaN,NaN,2,9.9,001767,   NaN,57.2,     NaN,      NaN,NaN,10.5,NaN,16.500, NaN,NaN,NaN, NaN, NaN
20040727,003000,1220056,34.667500,-121.657833,NaN,16.494,33.464,42.649,  NaN,0.0, NaN, NaN, NaN, NaN,24.453,346.853,15.90,1013.76,92.60,NaN,303.0,NaN,6.6,NaN,317.4,NaN,6.1,NaN,NaN, NaN,NaN,59.0,NaN,NaN,NaN,2,10.0,001797,   NaN,57.7,     NaN,      NaN,NaN,10.8,NaN,16.498, NaN,NaN,NaN, NaN, NaN
20040727,003030,1220086,34.668167,-121.656500,NaN,16.488,33.464,42.644,  NaN,0.0, NaN, NaN, NaN, NaN,24.455,346.661,15.90,1013.65,92.70,NaN,304.0,NaN,8.6,NaN,321.2,NaN,7.3,NaN,NaN, NaN,NaN,58.0,NaN,NaN,NaN,2,9.8,001827,   NaN,56.7,     NaN,      NaN,NaN,10.2,NaN,16.492, NaN,NaN,NaN, NaN, NaN
20040727,003100,1220116,34.668833,-121.655000,NaN,16.483,33.463,42.638,  NaN,0.0, NaN, NaN, NaN, NaN,24.455,346.652,15.90,1013.61,92.70,NaN,304.0,NaN,7.8,NaN,319.3,NaN,6.1,NaN,NaN, NaN,NaN,59.0,NaN,NaN,NaN,2,9.7,001857,   NaN,55.3,     NaN,      NaN,NaN,10.0,NaN,16.487, NaN,NaN,NaN, NaN, NaN
20040727,003130,1220146,34.669500,-121.653667,NaN,16.477,33.462,42.631,  NaN,0.0, NaN, NaN, NaN, NaN,24.456,346.557,15.90,1013.77,92.40,NaN,300.0,NaN,6.2,NaN,306.3,NaN,5.5,NaN,NaN, NaN,NaN,61.0,NaN,NaN,NaN,2,9.8,001887,   NaN,57.7,     NaN,      NaN,NaN,10.3,NaN,16.481, NaN,NaN,NaN, NaN, NaN
20040727,003200,1220176,34.670167,-121.652167,NaN,16.473,33.463,42.628,  NaN,0.0, NaN, NaN, NaN, NaN,24.457,346.430,15.80,1013.67,92.50,NaN,321.0,NaN,6.2,NaN,323.8,NaN,4.4,NaN,NaN, NaN,NaN,58.0,NaN,NaN,NaN,2,9.6,001917,   NaN,56.3,     NaN,      NaN,NaN,11.1,NaN,16.477, NaN,NaN,NaN, NaN, NaN
20040727,003230,1220206,34.670833,-121.650833,NaN,16.469,33.463,42.624,  NaN,0.0, NaN, NaN, NaN, NaN,24.459,346.305,15.90,1013.85,92.60,NaN,313.0,NaN,6.1,NaN,322.4,NaN,4.9,NaN,NaN, NaN,NaN,59.0,NaN,NaN,NaN,2,9.7,001947,   NaN,57.0,     NaN,      NaN,NaN,10.6,NaN,16.472, NaN,NaN,NaN, NaN, NaN
20040727,003300,1220236,34.671500,-121.649333,NaN,16.454,33.463,42.609,  NaN,0.0, NaN, NaN, NaN, NaN,24.462,346.026,15.90,1013.60,92.50,NaN,312.0,NaN,7.2,NaN,318.3,NaN,6.2,NaN,NaN, NaN,NaN,57.0,NaN,NaN,NaN,2,9.7,001977,   NaN,56.3,     NaN,      NaN,NaN,9.7,NaN,16.458, NaN,NaN,NaN, NaN, NaN
20040727,003330,1220266,34.672167,-121.648000,NaN,16.442,33.464,42.599,  NaN,0.0, NaN, NaN, NaN, NaN,24.465,345.674,15.90,1013.72,92.60,NaN,308.0,NaN,6.4,NaN,318.3,NaN,5.5,NaN,NaN, NaN,NaN,62.0,NaN,NaN,NaN,2,9.8,002007,   NaN,58.7,     NaN,      NaN,NaN,10.5,NaN,16.445, NaN,NaN,NaN, NaN, NaN
20040727,003400,1220296,34.672833,-121.646500,NaN,16.438,33.462,42.593,  NaN,0.0, NaN, NaN, NaN, NaN,24.465,345.705,15.90,1013.62,92.50,NaN,311.0,NaN,6.9,NaN,323.9,NaN,5.1,NaN,NaN, NaN,NaN,64.0,NaN,NaN,NaN,2,9.8,002037,   NaN,57.9,     NaN,      NaN,NaN,9.8,NaN,16.442, NaN,NaN,NaN, NaN, NaN
20040727,003430,1220326,34.673500,-121.645000,NaN,16.405,33.465,42.565,  NaN,0.0, NaN, NaN, NaN, NaN,24.475,344.751,15.90,1013.74,92.40,NaN,311.0,NaN,6.7,NaN,320.9,NaN,4.9,NaN,NaN, NaN,NaN,64.0,NaN,NaN,NaN,2,9.8,002067,   NaN,58.3,     NaN,      NaN,NaN,9.9,NaN,16.409, NaN,NaN,NaN, NaN, NaN
20040727,003500,1220356,34.674167,-121.643667,NaN,16.430,33.461,42.585,  NaN,0.0, NaN, NaN, NaN, NaN,24.466,345.635,15.90,1013.58,91.80,NaN,315.0,NaN,6.8,NaN,323.4,NaN,5.3,NaN,NaN, NaN,NaN,59.0,NaN,NaN,NaN,2,9.8,002097,   NaN,55.1,     NaN,      NaN,NaN,10.2,NaN,16.434, NaN,NaN,NaN, NaN, NaN
20040727,003530,1220386,34.674833,-121.642167,NaN,16.439,33.460,42.592,  NaN,0.0, NaN, NaN, NaN, NaN,24.463,345.883,15.90,1013.65,92.20,NaN,301.0,NaN,6.0,NaN,306.0,NaN,5.5,NaN,NaN, NaN,NaN,63.0,NaN,NaN,NaN,2,9.8,002127,   NaN,56.9,     NaN,      NaN,NaN,10.4,NaN,16.443, NaN,NaN,NaN, NaN, NaN
20040727,003600,1220416,34.675500,-121.640833,NaN,16.435,33.460,42.588,  NaN,0.0, NaN, NaN, NaN, NaN,24.464,345.827,15.90,1013.53,92.20,NaN,305.0,NaN,6.2,NaN,311.8,NaN,5.6,NaN,NaN, NaN,NaN,62.0,NaN,NaN,NaN,2,9.9,002157,   NaN,56.6,     NaN,      NaN,NaN,10.8,NaN,16.439, NaN,NaN,NaN, NaN, NaN
20040727,003630,1220446,34.676167,-121.639333,NaN,16.419,33.460,42.573,  NaN,0.0, NaN, NaN, NaN, NaN,24.468,345.460,15.90,1013.63,92.40,NaN,300.0,NaN,6.3,NaN,308.6,NaN,5.1,NaN,NaN, NaN,NaN,64.0,NaN,NaN,NaN,2,9.9,002187,   NaN,57.7,     NaN,      NaN,NaN,10.7,NaN,16.423, NaN,NaN,NaN, NaN, NaN
20040727,003700,1220476,34.676833,-121.637833,NaN,16.421,33.457,42.572,  NaN,0.0, NaN, NaN, NaN, NaN,24.465,345.701,16.00,1013.54,92.20,NaN,310.0,NaN,6.8,NaN,312.4,NaN,6.2,NaN,NaN, NaN,NaN,57.0,NaN,NaN,NaN,2,9.8,002217,   NaN,56.1,     NaN,      NaN,NaN,11.3,NaN,16.425, NaN,NaN,NaN, NaN, NaN
20040727,003730,1220506,34.677500,-121.636500,NaN,16.456,33.457,42.605,  NaN,0.0, NaN, NaN, NaN, NaN,24.457,346.493,16.00,1013.68,92.10,NaN,311.0,NaN,6.3,NaN,302.6,NaN,5.5,NaN,NaN, NaN,NaN,61.0,NaN,NaN,NaN,2,9.8,002247,   NaN,55.7,     NaN,      NaN,NaN,10.6,NaN,16.460, NaN,NaN,NaN, NaN, NaN
20040727,003800,1220536,34.678167,-121.635000,NaN,16.472,33.460,42.624,  NaN,0.0, NaN, NaN, NaN, NaN,24.455,346.633,16.00,1013.57,92.00,NaN,311.0,NaN,7.6,NaN,314.9,NaN,5.2,NaN,NaN, NaN,NaN,59.0,NaN,NaN,NaN,2,9.6,002277,   NaN,53.7,     NaN,      NaN,NaN,10.2,NaN,16.476, NaN,NaN,NaN, NaN, NaN
20040727,003830,1220566,34.678833,-121.633667,NaN,16.460,33.461,42.613,  NaN,0.0, NaN, NaN, NaN, NaN,24.459,346.325,15.90,1013.55,91.80,NaN,316.0,NaN,6.6,NaN,320.7,NaN,5.1,NaN,NaN, NaN,NaN,56.0,NaN,NaN,NaN,2,9.5,002307,   NaN,54.1,     NaN,      NaN,NaN,10.3,NaN,16.464, NaN,NaN,NaN, NaN, NaN
20040727,003900,1220596,34.679500,-121.632333,NaN,16.448,33.459,42.599,  NaN,0.0, NaN, NaN, NaN, NaN,24.460,346.155,16.00,1013.56,92.10,NaN,310.0,NaN,6.6,NaN,317.7,NaN,5.5,NaN,NaN, NaN,NaN,57.0,NaN,NaN,NaN,2,9.7,002337,   NaN,53.8,     NaN,      NaN,NaN,10.4,NaN,16.452, NaN,NaN,NaN, NaN, NaN
20040727,003930,1220626,34.680333,-121.630833,NaN,16.431,33.459,42.583,  NaN,0.0, NaN, NaN, NaN, NaN,24.464,345.792,16.00,1013.60,92.10,NaN,320.0,NaN,7.6,NaN,341.2,NaN,4.9,NaN,NaN, NaN,NaN,55.0,NaN,NaN,NaN,2,9.8,002367,   NaN,54.1,     NaN,      NaN,NaN,10.3,NaN,16.435, NaN,NaN,NaN, NaN, NaN
20040727,004000,1220656,34.681000,-121.629500,NaN,16.423,33.459,42.575,  NaN,0.0, NaN, NaN, NaN, NaN,24.466,345.629,16.00,1013.53,92.10,NaN,316.0,NaN,8.0,NaN,331.4,NaN,6.2,NaN,NaN, NaN,NaN,55.0,NaN,NaN,NaN,2,9.7,002397,   NaN,52.7,     NaN,      NaN,NaN,10.4,NaN,16.427, NaN,NaN,NaN, NaN, NaN